Weather History for KLBL - January, 2013

Change the Weather History Date:

Saturday, January 5, 2013

  Actual Average Record
Temperature  
Mean Temperature 24 °F -  
Max Temperature 37 °F 44 °F 80 °F (1956)
Min Temperature 12 °F 19 °F -9 °F (1942)
Degree Days  
Heating Degree Days 40    
Moisture  
Dew Point 18 °F    
Average Humidity 72    
Maximum Humidity 86    
Minimum Humidity 60    
Precipitation  
Precipitation 0.00 in - - ()
Sea Level Pressure  
Sea Level Pressure 30.17 in    
Wind  
Wind Speed 13 mph (WNW)    
Max Wind Speed 21 mph    
Max Gust Speed 26 mph    
Visibility 10 miles    
Events      
Averages and records for this station are not official NWS values.
T = Trace of Precipitation, MM = Missing Value Source: NWS Daily Summary

Daily Weather History Graph

Daily Weather History Graph

Search for Another Location

Airport or City:

Trip Planner

Search our weather history database for the weather conditions in past years. The results will help you decide how hot, cold, wet, or windy it might be!

Date:

Astronomy

Jan. 05, 2013 Rise Set
Actual Time 7:57 AM CST 5:41 PM CST
Civil Twilight 7:28 AM CST 6:10 PM CST
Nautical Twilight 6:56 AM CST 6:42 PM CST
Astronomical Twilight 6:25 AM CST 7:14 PM CST
Moon 1:11 AM CST (1/5) 12:28 PM CST (1/5)
Length of Visible Light 10h 41m
Length of Day
9h 43m
Last Quarter, 44% of the Moon is Illuminated
Jan 5
Last Quarter
Jan 11
New
Jan 18
First Quarter
Jan 26
Full
Feb 3
Last Quarter

Hourly Weather History & Observations

Time (CST) Temp. Windchill Dew Point Humidity Pressure Visibility Wind Dir Wind Speed Gust Speed Precip Events Conditions
12:15 AM 30.2 °F 18.5 °F 24.8 °F 80% 30.08 in 10.0 mi SSW 17.3 mph - N/A   Overcast
12:35 AM 30.2 °F 18.1 °F 24.8 °F 80% 30.08 in 10.0 mi SSW 18.4 mph - N/A   Overcast
12:55 AM 30.2 °F 19.3 °F 24.8 °F 80% 30.07 in 10.0 mi South 15.0 mph - N/A   Overcast
1:15 AM 28.4 °F 17.5 °F 23.0 °F 80% 30.07 in 10.0 mi South 13.8 mph - N/A   Overcast
1:35 AM 28.4 °F 18.0 °F 21.2 °F 74% 30.06 in 10.0 mi South 12.7 mph - N/A   Overcast
1:55 AM 28.4 °F 19.1 °F 21.2 °F 74% 30.07 in 10.0 mi South 10.4 mph - N/A   Overcast
2:15 AM 26.6 °F 18.2 °F 19.4 °F 74% 30.08 in 10.0 mi South 8.1 mph - N/A   Mostly Cloudy
2:35 AM 24.8 °F 16.1 °F 17.6 °F 74% 30.07 in 10.0 mi South 8.1 mph - N/A   Scattered Clouds
2:55 AM 23.0 °F 13.1 °F 15.8 °F 74% 30.07 in 10.0 mi South 9.2 mph - N/A   Partly Cloudy
3:15 AM 21.2 °F 10.9 °F 17.6 °F 86% 30.07 in 10.0 mi South 9.2 mph - N/A   Scattered Clouds
3:35 AM 21.2 °F 10.9 °F 15.8 °F 80% 30.07 in 10.0 mi South 9.2 mph - N/A   Clear
3:55 AM 21.2 °F 11.7 °F 15.8 °F 80% 30.06 in 10.0 mi South 8.1 mph - N/A   Clear
4:15 AM 19.4 °F 7.9 °F 14.0 °F 80% 30.06 in 10.0 mi South 10.4 mph - N/A   Clear
4:35 AM 19.4 °F 7.2 °F 14.0 °F 80% 30.04 in 10.0 mi South 11.5 mph - N/A   Clear
4:55 AM 19.4 °F 8.6 °F 15.8 °F 86% 30.05 in 10.0 mi SSW 9.2 mph - N/A   Clear
5:15 AM 19.4 °F 9.5 °F 15.8 °F 86% 30.05 in 10.0 mi SSW 8.1 mph - N/A   Clear
5:35 AM 19.4 °F 11.5 °F 14.0 °F 80% 30.05 in 10.0 mi SW 5.8 mph - N/A   Clear
6:15 AM 15.8 °F 5.1 °F 10.4 °F 79% 30.05 in 10.0 mi SW 8.1 mph - N/A   Clear
6:35 AM 15.8 °F 6.1 °F 8.6 °F 73% 30.05 in 10.0 mi West 6.9 mph - N/A   Clear
6:55 AM 14.0 °F 2.0 °F 8.6 °F 79% 30.06 in 10.0 mi WNW 9.2 mph - N/A   Clear
7:15 AM 12.2 °F -1.8 °F 8.6 °F 85% 30.06 in 10.0 mi WNW 11.5 mph - N/A   Clear
7:35 AM 12.2 °F -2.5 °F 6.8 °F 79% 30.07 in 10.0 mi NW 12.7 mph - N/A   Clear
7:55 AM 14.0 °F 0.5 °F 8.6 °F 79% 30.08 in 10.0 mi NW 11.5 mph - N/A   Clear
8:15 AM 14.0 °F 0.5 °F 6.8 °F 73% 30.08 in 10.0 mi NW 11.5 mph - N/A   Clear
8:35 AM 14.0 °F 2.0 °F 6.8 °F 73% 30.10 in 10.0 mi NW 9.2 mph - N/A   Clear
8:55 AM 14.0 °F -0.2 °F 6.8 °F 73% 30.10 in 10.0 mi WNW 12.7 mph - N/A   Clear
9:15 AM 15.8 °F 2.1 °F 8.6 °F 73% 30.11 in 10.0 mi NW 12.7 mph - N/A   Clear
9:55 AM 21.2 °F 6.8 °F 12.2 °F 68% 30.14 in 10.0 mi NW 17.3 mph 23.0 mph N/A   Clear
10:15 AM 24.8 °F 10.7 °F 15.8 °F 69% 30.15 in 10.0 mi NW 19.6 mph 24.2 mph N/A   Clear
11:15 AM 30.2 °F 18.5 °F 19.4 °F 64% 30.16 in 10.0 mi NW 17.3 mph - N/A   Clear
11:35 AM 30.2 °F 17.8 °F 19.4 °F 64% 30.17 in 10.0 mi NW 19.6 mph - N/A   Clear
11:55 AM 32.0 °F 20.5 °F 19.4 °F 60% 30.18 in 10.0 mi NW 18.4 mph 24.2 mph N/A   Clear
12:15 PM 33.8 °F 22.2 °F 21.2 °F 60% 30.18 in 10.0 mi NW 20.7 mph 26.5 mph N/A   Clear
12:35 PM 33.8 °F 22.2 °F 21.2 °F 60% 30.17 in 10.0 mi NW 20.7 mph - N/A   Clear
12:55 PM 33.8 °F 23.2 °F 21.2 °F 60% 30.15 in 10.0 mi NW 17.3 mph - N/A   Clear
1:15 PM 35.6 °F 25.2 °F 23.0 °F 60% 30.16 in 10.0 mi NW 18.4 mph 23.0 mph N/A   Clear
1:35 PM 35.6 °F 24.8 °F 23.0 °F 60% 30.16 in 10.0 mi NNW 19.6 mph - N/A   Clear
1:55 PM 35.6 °F 24.8 °F 23.0 °F 60% 30.16 in 10.0 mi NNW 19.6 mph 25.3 mph N/A   Clear
2:15 PM 35.6 °F 24.8 °F 24.8 °F 65% 30.16 in 10.0 mi NNW 19.6 mph 24.2 mph N/A   Clear
2:35 PM 37.4 °F 27.2 °F 24.8 °F 60% 30.17 in 10.0 mi NNW 19.6 mph - N/A   Clear
2:55 PM 37.4 °F 27.8 °F 24.8 °F 60% 30.18 in 10.0 mi NNW 17.3 mph - N/A   Clear
3:15 PM 37.4 °F 27.8 °F 26.6 °F 65% 30.20 in 10.0 mi NNW 17.3 mph - N/A   Clear
3:35 PM 37.4 °F 27.8 °F 26.6 °F 65% 30.20 in 10.0 mi NNW 17.3 mph - N/A   Clear
3:55 PM 37.4 °F 28.9 °F 26.6 °F 65% 30.22 in 10.0 mi NNW 13.8 mph - N/A   Clear
4:15 PM 37.4 °F 28.5 °F 26.6 °F 65% 30.23 in 10.0 mi NNW 15.0 mph - N/A   Clear
5:15 PM 37.4 °F 28.9 °F 24.8 °F 60% 30.26 in 10.0 mi NNW 13.8 mph - N/A   Clear
5:35 PM 33.8 °F 27.0 °F 24.8 °F 70% 30.26 in 10.0 mi NNW 8.1 mph - N/A   Clear
5:55 PM 32.0 °F 24.2 °F 21.2 °F 64% 30.27 in 10.0 mi NNW 9.2 mph - N/A   Clear
6:15 PM 28.4 °F 19.1 °F 19.4 °F 69% 30.27 in 10.0 mi NNW 10.4 mph - N/A   Clear
6:35 PM 26.6 °F 17.5 °F 19.4 °F 74% 30.27 in 10.0 mi NNW 9.2 mph - N/A   Clear
6:55 PM 28.4 °F 23.3 °F 19.4 °F 69% 30.28 in 10.0 mi WNW 4.6 mph - N/A   Clear
7:15 PM 26.6 °F 20.0 °F 17.6 °F 69% 30.28 in 10.0 mi West 5.8 mph - N/A   Clear
7:35 PM 28.4 °F 21.2 °F 21.2 °F 74% 30.29 in 10.0 mi NW 6.9 mph - N/A   Clear
7:55 PM 26.6 °F 19.1 °F 19.4 °F 74% 30.30 in 10.0 mi NNW 6.9 mph - N/A   Clear
8:15 PM 24.8 °F 15.3 °F 15.8 °F 69% 30.30 in 10.0 mi NW 9.2 mph - N/A   Clear
8:35 PM 23.0 °F 13.1 °F 15.8 °F 74% 30.31 in 10.0 mi NW 9.2 mph - N/A   Clear
8:55 PM 24.8 °F 14.0 °F 17.6 °F 74% 30.32 in 10.0 mi WNW 11.5 mph - N/A   Clear
9:15 PM 24.8 °F 14.0 °F 17.6 °F 74% 30.32 in 10.0 mi WNW 11.5 mph - N/A   Clear
9:35 PM 24.8 °F 13.4 °F 17.6 °F 74% 30.32 in 10.0 mi NW 12.7 mph - N/A   Clear
9:55 PM 24.8 °F 14.0 °F 17.6 °F 74% 30.33 in 10.0 mi NW 11.5 mph - N/A   Clear
10:15 PM 24.8 °F 14.0 °F 19.4 °F 80% 30.33 in 10.0 mi NW 11.5 mph - N/A   Clear
10:35 PM 24.8 °F 14.6 °F 17.6 °F 74% 30.34 in 10.0 mi NW 10.4 mph - N/A   Clear
10:55 PM 23.0 °F 12.4 °F 15.8 °F 74% 30.34 in 10.0 mi WNW 10.4 mph - N/A   Clear
11:15 PM 21.2 °F 9.5 °F 15.8 °F 80% 30.34 in 10.0 mi WNW 11.5 mph - N/A   Clear
11:35 PM 21.2 °F 10.1 °F 15.8 °F 80% 30.35 in 10.0 mi WNW 10.4 mph - N/A   Clear
11:55 PM 21.2 °F 10.1 °F 15.8 °F 80% 30.35 in 10.0 mi West 10.4 mph - N/A   Clear